Location: Washington
(38.8950°N, 77.0370°W)
Time: 01:03:07
(UTC-04:00)

IDEFIX/ARIANE 42P - Visible Passes

Search period start: 30 August 2016 00:00
Search period end: 09 September 2016 00:00
Orbit: 785 x 803 km, 98.2° (Epoch: 28 August)

Date Brightness Start Highest point End Pass type
(mag) Time Alt. Az. Time Alt. Az. Time Alt. Az.
01 Sep 5.7 20:23:16 10° WSW 20:25:46 14° W 20:28:17 10° WNW visible
05 Sep 5.4 20:08:27 10° SW 20:11:59 18° W 20:15:31 10° NW visible
07 Sep 6.2 06:16:20 10° ENE 06:17:41 11° E 06:19:02 10° ESE visible
08 Sep 5.7 20:24:30 10° WSW 20:26:48 13° W 20:29:06 10° WNW visible
